Probability
0 0 0 0 0 0 0 0 0 0 0 0 0 0 0 0 0 0 0 0 0 0 0 0 0 0 0 0 0 0 0 0 0 0 0 0 0 0 0 0 0 0 0
0 0 0 0 0 0 0 0 0 0 0 0 0 0 0 0 0 0 0 0 0 0 0 0 0 0 0 0 0 0 0 0 0 0 0 0 0 0 0 0 0 0 0
0 0 0 0 0 0 0 0 0 0 0 0 0 0 0 0 0 0 0 0 0 0 0 0 0 0 0 0 0 0 0 0 0 0 0 0 0 0 0 0 0 0 0
1 1 1 2 1 1 0 0 0 0 0 0 0 0 0 0 0 0 0 0 0 0 0 0 0 0 0 0 0 0 0 0 0 0 0 0 0 0 0 0 0 0 0
2 3 3 4 3 2 1 0 0 0 0 0 0 0 0 0 0 0 0 0 0 0 0 0 0 0 0 0 0 0 0 0 0 0 0 0 0 0 0 0 0 0 0
5 5 6 6 6 4 2 0 0 0 0 0 0 0 0 0 0 0 0 0 0 0 0 0 0 0 0 0 0 0 0 0 0 0 0 0 0 0 0 0 0 0 0
7 7 8 9 9 7 4 1 0 0 0 0 0 0 0 0 0 0 0 0 0 0 0 0 0 0 0 0 0 0 0 0 0 0 0 0 0 0 0 0 0 0 0
8 8 9 9 10 10 7 3 1 0 0 0 0 0 0 0 0 0 0 0 0 0 0 0 0 0 0 0 0 0 0 0 0 0 0 0 0 0 0 0 0 0 0
10 9 8 8 9 10 9 5 1 0 0 0 0 0 0 0 0 0 0 0 0 0 0 0 0 0 0 0 0 0 0 0 0 0 0 0 0 0 0 0 0 0 0
12 11 8 6 6 7 7 5 1 0 0 0 0 0 0 0 0 0 0 0 0 0 0 0 0 0 0 0 0 0 0 0 0 0 0 0 0 0 0 0 0 0 0
13 12 9 6 4 4 4 2 1 0 0 0 0 0 0 0 0 0 0 0 0 0 0 0 0 0 0 0 0 0 0 0 0 0 0 0 0 0 0 0 0 0 0
16 13 10 6 4 2 2 1 0 0 0 0 0 0 0 0 0 0 0 0 0 0 0 0 0 0 0 0 0 0 0 0 0 0 0 0 0 0 0 0 0 0 0
19 15 10 7 4 3 2 1 0 0 0 0 0 0 0 0 0 0 0 0 0 0 0 0 0 0 0 0 0 0 0 0 0 0 0 0 0 0 0 0 0 0 0
22 17 12 8 6 3 1 0 0 0 0 0 0 0 0 0 0 0 0 0 0 0 0 0 0 0 0 0 0 0 0 0 0 0 0 0 0 0 0 0 0 0 0
25 21 16 12 8 3 0 0 0 0 0 0 0 0 0 0 0 0 0 0 0 0 0 0 0 0 0 0 0 0 0 0 0 0 0 0 0 0 0 0 0 0 0
30 27 22 16 10 5 2 0 0 0 0 0 0 0 0 0 0 0 0 0 0 0 0 0 0 0 0 0 0 0 0 0 0 0 0 0 0 0 0 0 0 0 0
37 35 29 21 14 9 4 1 0 0 0 0 0 0 0 0 0 0 0 0 0 0 0 0 0 0 0 0 0 0 0 0 0 0 0 0 0 0 0 0 0 0 0
45 41 34 27 20 13 6 1 0 0 0 0 0 0 0 0 1 1 0 0 0 0 0 0 0 0 0 0 0 0 0 0 0 0 0 0 0 0 0 0 0 1 1
48 43 36 30 23 15 7 2 1 0 0 0 0 0 0 1 2 2 1 0 0 0 0 0 0 0 0 0 0 0 0 0 0 0 0 0 0 0 0 0 0 1 2
45 42 36 31 25 17 9 5 2 1 0 0 0 0 0 1 2 2 1 0 0 0 0 0 0 0 0 0 0 0 0 0 0 0 0 0 0 0 0 0 0 1 2
44 42 38 33 27 21 13 7 3 1 1 0 0 1 1 1 3 2 1 0 0 0 0 0 0 0 0 0 0 0 0 0 0 0 0 0 0 0 0 0 0 0 1
47 43 39 36 30 23 16 9 4 2 1 0 0 1 1 2 3 2 1 1 0 1 1 0 0 0 0 0 0 0 0 0 0 0 0 0 0 0 0 0 0 0 0
51 47 43 38 32 25 18 13 9 6 3 1 0 0 1 3 3 1 1 1 1 1 1 1 1 1 1 0 0 0 0 0 0 0 0 0 0 0 0 0 0 0 0
53 51 46 41 34 26 20 17 14 11 6 3 1 1 1 2 2 2 1 1 1 1 1 2 2 2 2 1 0 0 0 0 0 0 0 0 0 0 0 0 0 0 0
50 49 45 42 35 27 22 19 16 12 8 4 3 2 1 1 2 2 2 1 0 0 1 2 3 3 3 2 1 0 0 0 0 0 0 0 0 0 0 0 1 1 0
49 46 42 41 36 27 22 19 15 11 7 4 3 3 2 2 3 3 2 1 0 0 1 2 3 3 3 3 2 1 0 0 0 0 0 0 0 0 0 1 2 2 1
Wind_Speed
4 6 13 15 16 16 15 15 15 15 15 15 16 16 15 15 15 15 15 15 14 14 13 13 14 14 14 15 15 15 16 16 16 17 17 17 17 17 17 17 16 12 17
9 9 15 15 16 16 15 15 14 14 14 14 14 14 14 14 14 14 14 14 13 13 13 13 13 13 14 14 15 15 15 15 15 16 16 15 16 16 16 16 15 10 16
11 9 13 15 16 16 15 14 14 14 13 13 13 13 14 13 13 13 13 13 13 12 12 12 12 13 13 14 14 14 14 14 15 16 14 7 10 15 16 16 16 16 16
12 9 12 16 16 16 15 14 14 13 13 13 12 13 13 12 12 12 12 12 12 12 11 11 12 12 12 13 13 13 13 13 14 14 7 6 7 14 15 15 16 15 15
11 9 12 17 16 16 15 14 13 13 13 12 12 12 12 12 12 12 12 12 11 11 11 11 11 12 11 11 11 11 11 11 12 10 6 5 5 12 14 15 15 15 14
10 8 12 17 16 16 15 14 13 13 13 12 12 11 11 11 11 11 11 11 11 11 10 11 11 11 10 10 10 9 9 10 10 6 5 5 4 11 14 14 14 14 14
11 8 11 17 16 15 15 14 13 13 12 12 12 11 11 11 11 11 11 11 11 10 10 10 10 9 9 9 8 8 8 10 7 6 5 5 6 12 13 13 13 13 14
13 10 10 16 16 15 15 14 13 13 12 12 11 11 11 11 11 10 10 11 10 10 9 9 9 9 8 7 7 8 9 9 8 7 5 5 8 11 13 13 13 13 13
12 10 7 9 11 15 15 14 13 13 12 11 11 11 11 11 11 10 10 10 10 9 9 9 8 8 7 6 6 7 8 10 6 5 7 4 9 12 13 13 13 13 13
9 8 7 7 6 7 8 13 13 12 12 11 10 10 10 10 10 10 8 8 9 8 8 8 7 6 6 5 4 6 8 8 5 5 4 6 11 12 13 13 12 12 12
10 7 8 7 6 6 6 10 10 11 10 9 8 10 8 4 4 5 7 8 8 8 7 7 6 5 4 3 4 5 6 3 4 4 3 9 12 13 13 13 12 12 11
11 9 8 8 8 6 6 5 3 4 4 4 3 4 3 3 3 4 7 9 8 7 6 6 5 3 2 1 2 4 2 4 4 4 5 12 12 13 12 12 11 11 11
13 11 9 9 8 7 4 4 2 2 3 3 4 4 3 2 2 2 2 3 3 4 2 2 1 1 1 1 1 2 2 3 2 3 5 12 12 12 12 12 11 11 11
12 11 10 9 8 7 5 4 4 3 3 3 3 4 3 2 2 3 2 2 2 1 2 1 1 1 1 1 2 3 3 3 3 3 5 13 11 12 12 12 11 11 11
11 10 10 9 9 7 6 4 5 4 4 4 3 4 5 3 3 3 2 2 2 2 2 2 2 1 1 1 2 4 4 4 5 4 4 12 12 11 12 12 12 11 11
10 10 9 9 9 8 6 5 4 4 4 4 4 4 5 4 4 4 3 3 3 3 3 3 3 2 2 1 2 3 5 5 5 4 4 7 11 11 11 12 12 12 11
10 10 9 9 9 8 7 5 4 4 4 4 4 4 5 5 5 4 4 3 3 3 3 2 2 1 1 1 1 3 4 4 5 5 5 3 5 9 11 11 11 11 12
10 10 10 10 9 8 6 5 3 3 3 3 3 3 5 5 6 4 4 3 3 3 3 3 2 1 1 1 1 1 2 3 5 5 4 4 4 4 7 11 11 11 11
11 10 9 8 9 7 6 4 3 3 3 3 3 3 4 5 6 5 4 3 3 3 3 3 2 2 2 2 2 1 2 3 4 5 5 6 5 4 4 8 11 11 12
10 10 9 8 8 6 4 3 2 2 2 2 3 4 5 4 5 5 3 4 4 3 2 2 3 2 2 2 2 1 1 2 3 4 5 4 5 6 5 5 5 7 12
9 9 9 8 8 6 4 3 3 2 2 2 2 4 5 5 5 5 4 3 4 3 4 4 3 3 2 2 2 1 2 1 2 3 3 3 5 6 5 5 4 4 5
10 9 9 9 8 7 5 4 3 3 2 2 2 3 5 5 5 5 4 4 4 3 4 4 3 2 2 2 3 2 1 3 2 2 2 4 5 4 5 7 5 5 4
10 10 9 9 8 7 6 3 2 2 1 0 2 2 4 5 5 5 5 4 4 4 4 4 4 4 3 2 2 4 3 3 2 2 2 3 3 3 4 4 6 6 6
10 9 9 9 8 7 6 5 6 4 4 4 3 3 3 5 5 5 5 5 5 4 4 5 4 4 4 3 2 2 3 4 3 1 2 1 3 4 4 4 5 5 5
9 9 8 8 8 8 7 7 6 4 3 2 2 3 3 4 5 5 6 5 5 4 5 5 4 4 4 4 3 2 2 1 2 3 2 2 1 2 3 3 3 3 4
8 8 8 8 8 8 8 7 7 6 5 4 3 3 3 3 3 4 5 5 5 4 5 5 5 5 4 4 3 3 3 3 3 3 3 2 2 2 1 2 2 3 3
Wind_Direction
138 134 126 125 120 115 111 109 106 102 101 100 99 99 99 101 102 105 106 107 108 107 107 107 107 107 107 109 112 115 116 117 118 117 117 116 116 116 114 111 108 106 108
142 136 128 126 123 120 116 112 109 106 105 103 102 102 102 102 104 106 107 108 109 108 108 109 109 109 110 111 113 117 119 119 118 116 114 115 117 117 115 114 113 113 112
132 130 128 128 126 123 119 116 113 111 108 107 106 105 105 105 107 107 108 110 110 110 111 112 112 111 113 115 117 119 120 118 116 113 107 100 110 116 117 117 116 114 113
131 129 129 129 127 125 122 120 117 115 112 111 110 110 109 110 110 110 111 111 112 114 114 115 116 116 117 118 120 121 121 121 118 114 104 104 112 118 118 118 117 117 115
128 129 134 131 129 127 125 123 122 120 117 115 114 113 113 114 114 113 113 113 115 117 116 117 119 120 120 120 122 124 122 123 122 111 104 99 107 123 122 122 121 119 120
129 131 137 133 132 131 129 128 127 124 122 120 119 118 117 117 115 116 116 116 118 119 118 118 120 122 122 122 122 124 123 120 115 109 109 111 116 127 126 125 124 123 122
133 133 136 135 135 134 132 131 131 129 127 126 125 123 121 120 119 119 121 121 121 121 122 121 122 124 125 124 122 122 123 120 116 118 117 115 124 129 129 127 126 126 124
137 136 137 138 137 135 135 135 133 132 130 130 128 126 125 125 124 123 125 125 124 124 126 125 125 127 128 126 120 123 124 124 126 129 125 123 130 130 130 130 129 128 127
137 136 136 140 139 139 139 137 136 135 134 134 133 131 130 130 130 131 129 130 130 131 132 130 129 128 125 121 120 128 129 129 126 135 138 134 138 137 134 133 132 132 132
138 141 139 136 136 138 141 143 142 140 139 138 138 136 137 137 137 137 134 136 138 139 138 137 134 130 125 122 122 126 126 123 125 132 133 147 147 144 141 140 138 137 136
146 151 150 146 145 141 147 150 147 145 145 143 143 143 137 124 128 136 145 145 146 147 145 145 143 137 128 120 125 129 118 116 125 132 143 153 152 149 147 145 145 144 142
160 164 163 158 156 155 158 140 144 146 144 140 145 141 135 144 159 154 159 154 155 155 154 156 157 147 117 93 121 121 109 123 125 143 156 158 158 154 152 153 153 150 149
166 167 168 167 163 163 151 152 156 144 147 159 170 166 157 153 157 144 142 152 152 155 146 155 149 119 132 139 126 133 139 131 141 154 162 162 161 160 160 160 160 159 157
167 169 167 166 165 167 158 165 164 158 162 171 181 175 157 148 149 150 155 159 158 153 162 166 172 222 223 181 150 152 156 147 150 154 170 167 167 167 168 169 168 167 167
165 165 166 163 165 164 159 172 169 171 175 178 178 175 164 158 163 164 165 169 178 177 177 182 197 212 211 183 166 159 158 156 156 161 172 175 175 176 176 177 176 175 175
161 160 162 161 161 158 160 168 169 178 178 172 176 177 168 162 165 166 165 170 181 187 183 177 186 188 191 161 149 151 156 157 161 169 177 181 182 181 183 184 183 183 184
161 157 160 160 159 156 158 165 165 170 171 175 176 173 170 166 166 168 167 175 188 185 176 168 183 171 172 157 159 162 161 162 168 177 179 177 184 191 191 192 191 192 194
157 158 164 164 160 159 159 158 157 160 162 174 172 167 175 174 169 165 168 181 190 174 166 167 172 158 171 173 183 174 162 167 178 180 180 182 186 192 199 197 195 196 200
161 161 163 160 163 165 160 155 152 150 160 169 168 172 180 179 172 167 173 188 180 171 172 180 168 163 173 184 194 191 169 174 185 185 189 192 192 190 196 203 202 201 205
163 162 161 161 166 161 149 138 133 142 158 165 173 183 183 181 173 167 175 185 168 164 175 172 168 168 171 177 186 184 195 188 189 191 199 197 198 200 199 205 205 210 211
162 163 162 161 169 161 156 159 159 175 183 184 193 189 184 181 177 172 177 176 170 172 180 172 155 157 175 147 98 24 344 294 215 210 199 192 202 206 200 204 205 207 215
171 168 167 167 175 174 171 164 161 164 185 194 203 197 193 187 187 186 179 179 178 172 178 174 157 154 184 158 138 121 342 335 307 237 203 197 199 199 206 210 207 205 210
175 175 176 174 175 176 164 145 137 124 104 181 212 216 210 194 194 190 187 182 183 179 185 190 175 165 184 208 167 154 165 219 275 304 240 214 198 193 203 205 205 205 207
181 175 171 173 173 174 168 167 170 180 197 206 198 212 223 208 201 193 189 188 190 187 188 200 187 176 168 195 214 201 184 168 167 261 304 260 213 204 204 209 207 203 200
176 172 172 172 176 177 179 181 181 190 200 195 189 211 228 226 212 202 195 191 192 192 195 202 190 186 180 186 191 187 189 184 169 167 238 272 271 229 207 205 200 196 195
170 170 172 174 183 183 182 183 184 189 192 188 197 209 223 226 222 213 200 196 195 193 196 202 199 195 196 195 193 183 177 179 192 178 202 224 233 259 218 196 197 196 194